Zurück zum Katalog

FENGYUN 1C DEB

AktivSSO
NORAD 36197·DEBRIS·🇨🇳 China

Gestartet May 10, 1999 von Taiyuan Satellite Launch Center

Loading…

Nächste Überflüge (nächste 24 Stunden)

TLE

VeraltetSource: Space-Track

Epoche: Aug 29, 2026, 00:02 UTC

1 36197U 99025DTW 26241.00207939  .00002587  00000-0  10094-2 0  9994
2 36197  98.6920 315.0916 0052182 136.1483 224.3860 14.29757025653428

Verfolge FENGYUN 1C DEB in Echtzeit mit AllMySat

Download on the App Store